Storm Lake, IA

3:32 AM CDT on August 29, 2016 (GMT -0500)
Storm Lake Municipal

Weather History for KSLB - November, 2014

Change the Weather History Date:

Sunday, November 16, 2014

  Actual Average Record
Temperature  
Mean Temperature 12 °F -  
Max Temperature 23 °F 44 °F 62 °F (2001)
Min Temperature 0 °F 27 °F 0 °F (2014)
Degree Days  
Heating Degree Days 54    
Moisture  
Dew Point 5 °F    
Average Humidity 77    
Maximum Humidity 100    
Minimum Humidity 67    
Precipitation  
Precipitation 0.00 in - - ()
Sea Level Pressure  
Sea Level Pressure 30.03 in    
Wind  
Wind Speed 16 mph (West)    
Max Wind Speed 22 mph    
Max Gust Speed 30 mph    
Visibility 10 miles    
Events Snow    
Averages and records for this station are not official NWS values.
T = Trace of Precipitation, MM = Missing Value Source: NWS Daily Summary

Daily Weather History Graph

Daily Weather History Graph

Search for Another Location

Airport or City:

Trip Planner

Search our weather history database for the weather conditions in past years. The results will help you decide how hot, cold, wet, or windy it might be!

Date:

Astronomy

Nov. 16, 2014 Rise Set
Actual Time 7:13 AM CST 4:57 PM CST
Civil Twilight 6:43 AM CST 5:27 PM CST
Nautical Twilight 6:08 AM CST 6:02 PM CST
Astronomical Twilight 5:35 AM CST 6:35 PM CST
Moon 1:13 AM CST (11/16) 1:58 PM CST (11/16)
Length of Visible Light 10h 44m
Length of Day
9h 43m
Waning Crescent, 31% of the Moon is Illuminated
Nov 16
Waning Crescent
Nov 22
New
Nov 29
First Quarter
Dec 6
Full
Dec 14
Last Quarter

Hourly Weather History & Observations

Time (CST) Temp. Windchill Dew Point Humidity Pressure Visibility Wind Dir Wind Speed Gust Speed Precip Events Conditions
12:15 AM 21.2 °F 13.6 °F 21.2 °F 100% 30.09 in 2.5 mi WSW 5.8 mph - N/A Snow Light Snow
12:35 AM 23.0 °F 8.7 °F 21.2 °F 93% 30.09 in 4.0 mi WNW 18.4 mph - N/A Snow Light Snow
12:55 AM 21.2 °F 6.4 °F 17.6 °F 86% 30.09 in 5.0 mi NW 18.4 mph - N/A   Overcast
1:15 AM 17.6 °F 2.2 °F 15.8 °F 93% 30.09 in 7.0 mi NW 17.3 mph - N/A   Mostly Cloudy
1:35 AM 15.8 °F -1.1 °F 14.0 °F 93% 30.09 in 8.0 mi NW 19.6 mph - N/A   Mostly Cloudy
1:55 AM 15.8 °F -1.9 °F 12.2 °F 86% 30.10 in 7.0 mi NW 21.9 mph 27.6 mph N/A   Overcast
2:15 AM 15.8 °F -1.9 °F 12.2 °F 86% 30.09 in 7.0 mi NW 21.9 mph 28.8 mph N/A   Overcast
2:35 AM 14.0 °F -3.9 °F 10.4 °F 86% 30.10 in 7.0 mi NW 20.7 mph 27.6 mph N/A   Overcast
2:55 AM 12.2 °F -5.3 °F 8.6 °F 85% 30.10 in 8.0 mi NW 18.4 mph 26.5 mph N/A Snow Light Snow
3:15 AM 12.2 °F -5.8 °F 6.8 °F 79% 30.10 in - NW 19.6 mph 26.5 mph N/A Snow Light Snow
3:35 AM 8.6 °F -9.5 °F 5.0 °F 85% 30.09 in 9.0 mi NW 17.3 mph - N/A   Overcast
3:55 AM 6.8 °F -11.8 °F 3.2 °F 85% 30.09 in 10.0 mi NW 17.3 mph - N/A   Overcast
4:15 AM 6.8 °F -12.9 °F 1.4 °F 79% 30.10 in 10.0 mi WNW 19.6 mph - N/A   Overcast
4:35 AM 5.0 °F -14.2 °F -0.4 °F 78% 30.10 in 10.0 mi NW 17.3 mph 24.2 mph N/A   Scattered Clouds
4:55 AM 5.0 °F -14.2 °F -0.4 °F 78% 30.12 in 10.0 mi WNW 17.3 mph - N/A   Clear
5:15 AM 3.2 °F -13.9 °F -2.2 °F 78% 30.11 in 10.0 mi WNW 12.7 mph - N/A   Clear
5:35 AM 3.2 °F -15.9 °F -2.2 °F 78% 30.10 in 10.0 mi WNW 16.1 mph - N/A   Clear
5:55 AM 3.2 °F -13.9 °F -2.2 °F 78% 30.10 in 10.0 mi West 12.7 mph - N/A   Clear
6:15 AM 3.2 °F -17.1 °F -2.2 °F 78% 30.10 in 10.0 mi WNW 18.4 mph - N/A   Clear
6:35 AM 1.4 °F -18.2 °F -2.2 °F 85% 30.09 in 10.0 mi West 16.1 mph - N/A   Clear
6:55 AM 1.4 °F -17.6 °F -4.0 °F 78% 30.10 in 10.0 mi West 15.0 mph - N/A   Clear
7:15 AM 1.4 °F -18.8 °F -4.0 °F 78% 30.09 in 10.0 mi West 17.3 mph - N/A   Clear
7:35 AM -0.4 °F -20.5 °F -5.8 °F 78% 30.08 in 10.0 mi West 16.1 mph - N/A   Clear
7:55 AM -0.4 °F -19.9 °F -5.8 °F 78% 30.08 in 10.0 mi West 15.0 mph - N/A   Clear
8:15 AM 1.4 °F -18.2 °F -4.0 °F 78% 30.07 in 10.0 mi West 16.1 mph - N/A   Clear
8:35 AM 1.4 °F -17.6 °F -4.0 °F 78% 30.08 in 10.0 mi WSW 15.0 mph - N/A   Clear
8:55 AM 3.2 °F -15.9 °F -2.2 °F 78% 30.08 in 10.0 mi West 16.1 mph - N/A   Clear
9:15 AM 3.2 °F -13.9 °F -2.2 °F 78% 30.07 in 10.0 mi WSW 12.7 mph - N/A   Clear
9:35 AM 5.0 °F -11.6 °F -2.2 °F 72% 30.06 in 10.0 mi WSW 12.7 mph 18.4 mph N/A   Clear
9:55 AM 5.0 °F -12.3 °F -2.2 °F 72% 30.06 in 10.0 mi WSW 13.8 mph - N/A   Clear
10:15 AM 5.0 °F -13.6 °F -0.4 °F 78% 30.04 in 10.0 mi WSW 16.1 mph - N/A   Clear
10:35 AM 5.0 °F -15.2 °F -0.4 °F 78% 30.04 in 9.0 mi SW 19.6 mph - N/A   Clear
10:55 AM 6.8 °F -13.4 °F 1.4 °F 79% 30.04 in 10.0 mi WSW 20.7 mph - N/A   Clear
11:15 AM 8.6 °F -10.5 °F 1.4 °F 73% 30.02 in 10.0 mi WSW 19.6 mph - N/A   Clear
11:35 AM 8.6 °F -9.5 °F 1.4 °F 73% 30.00 in 10.0 mi WSW 17.3 mph 24.2 mph N/A   Clear
11:55 AM 8.6 °F -10.0 °F 1.4 °F 73% 29.99 in 10.0 mi WSW 18.4 mph - N/A   Clear
12:15 PM 10.4 °F -8.6 °F 1.4 °F 67% 29.98 in 10.0 mi WSW 20.7 mph - N/A   Clear
12:35 PM 10.4 °F -8.6 °F 1.4 °F 67% 29.97 in 10.0 mi WSW 20.7 mph - N/A   Clear
12:55 PM 12.2 °F -4.3 °F 3.2 °F 67% 29.97 in 10.0 mi WSW 16.1 mph - N/A   Clear
1:15 PM 12.2 °F -5.3 °F 3.2 °F 67% 29.95 in 10.0 mi WSW 18.4 mph - N/A   Clear
1:35 PM 12.2 °F -4.8 °F 3.2 °F 67% 29.95 in 10.0 mi WSW 17.3 mph - N/A   Clear
1:55 PM 14.0 °F -1.4 °F 5.0 °F 67% 29.94 in 10.0 mi WSW 15.0 mph 21.9 mph N/A   Clear
2:15 PM 14.0 °F -2.0 °F 5.0 °F 67% 29.93 in 10.0 mi SW 16.1 mph - N/A   Clear
2:35 PM 14.0 °F -2.5 °F 5.0 °F 67% 29.92 in 10.0 mi SW 17.3 mph - N/A   Clear
2:55 PM 15.8 °F -0.2 °F 6.8 °F 68% 29.93 in 10.0 mi WSW 17.3 mph - N/A   Clear
3:15 PM 15.8 °F 0.3 °F 6.8 °F 68% 29.94 in 10.0 mi WSW 16.1 mph - N/A   Partly Cloudy
3:35 PM 15.8 °F 0.9 °F 6.8 °F 68% 29.95 in 10.0 mi WSW 15.0 mph - N/A   Partly Cloudy
3:55 PM 15.8 °F 0.9 °F 6.8 °F 68% 29.95 in 10.0 mi WSW 15.0 mph - N/A   Clear
4:15 PM 15.8 °F 1.4 °F 6.8 °F 68% 29.96 in 10.0 mi WSW 13.8 mph - N/A   Partly Cloudy
4:35 PM 15.8 °F 1.4 °F 6.8 °F 68% 29.96 in 10.0 mi West 13.8 mph - N/A   Scattered Clouds
4:55 PM 15.8 °F 2.1 °F 6.8 °F 68% 29.97 in 10.0 mi West 12.7 mph - N/A   Mostly Cloudy
5:15 PM 15.8 °F 3.4 °F 8.6 °F 73% 29.97 in 10.0 mi West 10.4 mph 16.1 mph N/A   Overcast
5:35 PM 15.8 °F 3.4 °F 8.6 °F 73% 29.97 in 10.0 mi West 10.4 mph - N/A   Overcast
5:55 PM 15.8 °F 4.2 °F 10.4 °F 79% 29.98 in 10.0 mi West 9.2 mph - N/A   Overcast
6:15 PM 15.8 °F 3.4 °F 10.4 °F 79% 29.97 in 10.0 mi West 10.4 mph - N/A   Overcast
6:35 PM 15.8 °F 3.4 °F 10.4 °F 79% 29.98 in 10.0 mi West 10.4 mph - N/A   Overcast
6:55 PM 19.4 °F 4.5 °F 10.4 °F 68% 29.98 in 10.0 mi NW 17.3 mph 26.5 mph N/A   Overcast
7:15 PM 19.4 °F 4.5 °F 10.4 °F 68% 29.99 in 10.0 mi NW 17.3 mph 29.9 mph N/A   Overcast
7:35 PM 19.4 °F 5.5 °F 10.4 °F 68% 29.99 in 10.0 mi NW 15.0 mph 21.9 mph N/A   Overcast
7:55 PM 17.6 °F 4.3 °F 10.4 °F 73% 29.99 in 10.0 mi WNW 12.7 mph - N/A   Overcast
8:15 PM 17.6 °F 3.7 °F 10.4 °F 73% 29.99 in 10.0 mi WNW 13.8 mph - N/A   Mostly Cloudy
8:35 PM 14.0 °F 0.5 °F 8.6 °F 79% 30.00 in 10.0 mi WNW 11.5 mph - N/A   Partly Cloudy
8:55 PM 14.0 °F -0.2 °F 8.6 °F 79% 30.00 in 10.0 mi WNW 12.7 mph - N/A   Clear
9:15 PM 14.0 °F -0.8 °F 8.6 °F 79% 30.00 in 10.0 mi WNW 13.8 mph - N/A   Mostly Cloudy
9:35 PM 12.2 °F -3.1 °F 8.6 °F 85% 30.01 in 10.0 mi WNW 13.8 mph - N/A   Partly Cloudy
9:55 PM 12.2 °F -3.7 °F 6.8 °F 79% 30.01 in 10.0 mi WNW 15.0 mph - N/A   Clear
10:15 PM 14.0 °F -0.8 °F 8.6 °F 79% 30.00 in 10.0 mi WNW 13.8 mph - N/A   Clear
10:35 PM 14.0 °F -2.0 °F 8.6 °F 79% 30.00 in 10.0 mi WNW 16.1 mph - N/A   Clear
10:55 PM 12.2 °F -4.8 °F 6.8 °F 79% 30.01 in 10.0 mi WNW 17.3 mph - N/A   Clear
11:10 PM 12.2 °F -3.7 °F 8.6 °F 85% 30.01 in 10.0 mi WNW 15.0 mph - N/A   Clear
11:35 PM 12.2 °F -3.1 °F 6.8 °F 79% 30.01 in 10.0 mi WNW 13.8 mph - N/A   Clear
11:55 PM 10.4 °F -5.4 °F 6.8 °F 85% 30.01 in 10.0 mi WNW 13.8 mph - N/A   Partly Cloudy